Location: Unspecified
(0.0000°N, 0.0000°E)
Time: 14:07:02
(UTC+00:00)

ISS - Pass Details

Date: 18 May 2022
Orbit: 414 x 421 km, 51.6° (Epoch: 20 May)

Event Time Altitude Azimuth Distance (km) Brightness Sun altitude
Exits shadow 03:58:46 22° 54° (NE) 970 -1.2 -27.6°
Maximum altitude 03:58:47 22° 54° (NE) 970 -1.2 -27.6°
Drops below altitude 10° 04:01:25 10° 107° (ESE) 1,482 -0.4 -27.0°
Sets 04:03:49 0° 123° (ESE) 2,349 0.5 -26.4°
